This is the latest recevied weather packets stored in our database for station/object 4S6DRJ-13. If no packets are shown the sender has not sent any weather packets the latest 10 day(s).
| Time | Temp. | Humidity | Pressure | Rain* | Wind** | Luminosity | Snow |
|---|---|---|---|---|---|---|---|
| 1788138341 | 27.78° C | 83% | 1009.1 hPa | 0 mm | 0.45 m/s, 228° | 41 W/m² | - |
| 1788138279 | 27.78° C | 83% | 1009.2 hPa | 0 mm | 1.34 m/s, 54° | 39 W/m² | - |
| 1788138218 | 27.78° C | 83% | 1009.2 hPa | 0 mm | 0.89 m/s, 220° | 38 W/m² | - |
| 1788138157 | 27.78° C | 83% | 1009.2 hPa | 0 mm | 0.45 m/s, 220° | 38 W/m² | - |
| 1788138096 | 27.78° C | 83% | 1009.2 hPa | 0 mm | 0.45 m/s, 230° | 38 W/m² | - |
| 1788138035 | 27.78° C | 83% | 1009.1 hPa | 0 mm | 1.34 m/s, 324° | 36 W/m² | - |
| 1788137974 | 27.78° C | 83% | 1009.2 hPa | 0 mm | 0 m/s | 34 W/m² | - |
| 1788137913 | 27.78° C | 83% | 1009.1 hPa | 0 mm | 0.45 m/s, 271° | 32 W/m² | - |
| 1788137852 | 27.78° C | 83% | 1009.2 hPa | 0 mm | 0.89 m/s, 256° | 31 W/m² | - |
| 1788137791 | 27.78° C | 83% | 1009.3 hPa | 0 mm | 0 m/s | 30 W/m² | - |
| 1788137730 | 27.78° C | 83% | 1009.1 hPa | 0 mm | 0.45 m/s, 247° | 29 W/m² | - |
| 1788137669 | 27.78° C | 83% | 1009.1 hPa | 0 mm | 0.89 m/s, 302° | 27 W/m² | - |
| 1788137608 | 27.78° C | 83% | 1009.2 hPa | 0 mm | 0.45 m/s, 272° | 25 W/m² | - |
| 1788137547 | 27.78° C | 83% | 1009.1 hPa | 0 mm | 0 m/s | 23 W/m² | - |
| 1788137486 | 27.78° C | 83% | 1009.2 hPa | 0 mm | 0.89 m/s, 306° | 22 W/m² | - |
| 1788137425 | 27.78° C | 83% | 1009.1 hPa | 0 mm | 0.89 m/s, 233° | 21 W/m² | - |
| 1788137364 | 27.78° C | 83% | 1009 hPa | 0 mm | 0.89 m/s, 73° | 19 W/m² | - |
| 1788137304 | 27.78° C | 83% | 1009.2 hPa | 0 mm | 0.45 m/s, 261° | 18 W/m² | - |
| 1788137242 | 27.78° C | 83% | 1009.1 hPa | 0 mm | 0 m/s | 17 W/m² | - |
| 1788137181 | 27.78° C | 83% | 1009.4 hPa | 0 mm | 0 m/s | 16 W/m² | - |
| 1788137120 | 27.78° C | 83% | 1009 hPa | 0 mm | 0.89 m/s, 323° | 14 W/m² | - |
| 1788137059 | 27.78° C | 83% | 1009.1 hPa | 0 mm | 0.45 m/s, 219° | 13 W/m² | - |
| 1788136998 | 27.78° C | 83% | 1009.1 hPa | 0 mm | 0 m/s | 12 W/m² | - |
| 1788136937 | 27.78° C | 83% | 1009.1 hPa | 0 mm | 0.89 m/s, 252° | 11 W/m² | - |
| 1788136876 | 27.78° C | 83% | 1009.2 hPa | 0 mm | 0.89 m/s, 272° | 10 W/m² | - |
* Rain latest hour (hover to see other rain measurements)
** Current wind speed in m/s (hover to see current wind gust speed)